When you browse on this site, cookies collect data to enhance your experience and personalize the content and advertising you see.
Visit our Privacy Policy to learn more. By continuing to use the site, you agree to this use of cookies and data.

Stündliche Wetter Sidi Bu-l-Abbas

Heute, 14 Juli, Dienstag

Zeit Temperatur Niederschläge Wind Luftdruck Luftfeuchtigkeit
00:00 +23°C° 0 mm 1 m/S 720 mmHg 86%
01:00 +22°C° 0 mm 1 m/S 720 mmHg 88%
02:00 +22°C° 0 mm 1 m/S 720 mmHg 91%
03:00 +21°C° 0 mm 1 m/S 719 mmHg 94%
04:00 +21°C° 0 mm 1 m/S 719 mmHg 92%
05:00 +21°C° 0 mm 1 m/S 719 mmHg 91%
06:00 +22°C° 0 mm 1 m/S 720 mmHg 90%
07:00 +23°C° 0 mm 1 m/S 720 mmHg 80%
08:00 +25°C° 0 mm 1 m/S 720 mmHg 70%
09:00 +26°C° 0 mm 1 m/S 720 mmHg 60%
10:00 +28°C° 0 mm 2 m/S 720 mmHg 53%
11:00 +30°C° 0 mm 3 m/S 720 mmHg 47%
12:00 +34°C° 0 mm 4 m/S 720 mmHg 38%
13:00 +34°C° 0 mm 4 m/S 719 mmHg 37%
14:00 +34°C° 0 mm 5 m/S 719 mmHg 36%
15:00 +35°C° 0 mm 6 m/S 719 mmHg 35%
16:00 +34°C° 0 mm 6 m/S 718 mmHg 38%
17:00 +33°C° 0 mm 6 m/S 718 mmHg 41%
18:00 +32°C° 0 mm 6 m/S 718 mmHg 44%
19:00 +29°C° 0 mm 4 m/S 718 mmHg 50%
20:00 +27°C° 0 mm 3 m/S 718 mmHg 57%
21:00 +25°C° 0 mm 2 m/S 718 mmHg 64%
22:00 +24°C° 0 mm 1 m/S 718 mmHg 66%
23:00 +24°C° 0 mm 1 m/S 718 mmHg 69%

Morgen, 15 Juli, Mittwoch

Zeit Temperatur Niederschläge Wind Luftdruck Luftfeuchtigkeit
00:00 +23°C° 0 mm 1 m/S 718 mmHg 71%
01:00 +23°C° 0 mm 1 m/S 718 mmHg 72%
02:00 +20°C° 0 mm 0 m/S 718 mmHg 73%
03:00 +20°C° 0 mm 0 m/S 717 mmHg 74%
04:00 +21°C° 0 mm 0 m/S 718 mmHg 69%
05:00 +22°C° 0 mm 0 m/S 718 mmHg 65%
06:00 +23°C° 0 mm 0 m/S 718 mmHg 61%
07:00 +27°C° 0 mm 1 m/S 719 mmHg 53%
08:00 +29°C° 0 mm 2 m/S 719 mmHg 44%
09:00 +31°C° 0 mm 2 m/S 720 mmHg 36%
10:00 +34°C° 0 mm 3 m/S 720 mmHg 32%
11:00 +36°C° 0 mm 4 m/S 720 mmHg 28%
12:00 +37°C° 0 mm 5 m/S 720 mmHg 24%
13:00 +38°C° 0 mm 6 m/S 719 mmHg 25%
14:00 +38°C° 0 mm 7 m/S 719 mmHg 26%
15:00 +38°C° 0 mm 8 m/S 718 mmHg 27%
16:00 +37°C° 0 mm 8 m/S 718 mmHg 30%
17:00 +34°C° 0 mm 7 m/S 718 mmHg 34%
18:00 +33°C° 0 mm 6 m/S 718 mmHg 37%
19:00 +30°C° 0 mm 5 m/S 718 mmHg 41%
20:00 +28°C° 0 mm 3 m/S 719 mmHg 46%
21:00 +27°C° 0 mm 1 m/S 719 mmHg 51%
22:00 +26°C° 0 mm 1 m/S 719 mmHg 52%
23:00 +26°C° 0 mm 1 m/S 719 mmHg 54%

übermorgen, 16 Juli, Donnerstag

Zeit Temperatur Niederschläge Wind Luftdruck Luftfeuchtigkeit
00:00 +23°C° 0 mm 0 m/S 719 mmHg 56%
01:00 +23°C° 0 mm 0 m/S 719 mmHg 58%
02:00 +22°C° 0 mm 0 m/S 719 mmHg 59%
03:00 +22°C° 0 mm 0 m/S 719 mmHg 61%
04:00 +25°C° 0 mm 1 m/S 719 mmHg 60%
05:00 +25°C° 0 mm 1 m/S 719 mmHg 59%
06:00 +26°C° 0 mm 1 m/S 719 mmHg 57%
07:00 +28°C° 0 mm 1 m/S 720 mmHg 50%
08:00 +30°C° 0 mm 2 m/S 720 mmHg 43%
09:00 +32°C° 0 mm 2 m/S 721 mmHg 36%
10:00 +35°C° 0 mm 3 m/S 721 mmHg 32%
11:00 +37°C° 0 mm 3 m/S 721 mmHg 28%
12:00 +40°C° 0 mm 4 m/S 721 mmHg 23%
13:00 +40°C° 0 mm 5 m/S 720 mmHg 24%
14:00 +40°C° 0 mm 6 m/S 720 mmHg 25%
15:00 +40°C° 0 mm 7 m/S 719 mmHg 26%
16:00 +38°C° 0 mm 6 m/S 719 mmHg 28%
17:00 +36°C° 0 mm 6 m/S 719 mmHg 30%
18:00 +34°C° 0 mm 5 m/S 719 mmHg 32%
19:00 +32°C° 0 mm 4 m/S 719 mmHg 36%
20:00 +29°C° 0 mm 2 m/S 720 mmHg 41%
21:00 +27°C° 0 mm 1 m/S 720 mmHg 45%
22:00 +27°C° 0 mm 1 m/S 720 mmHg 47%
23:00 +24°C° 0 mm 0 m/S 720 mmHg 49%

17 Juli, Freitag

Zeit Temperatur Niederschläge Wind Luftdruck Luftfeuchtigkeit
00:00 +24°C° 0 mm 0 m/S 720 mmHg 50%
01:00 +23°C° 0 mm 0 m/S 719 mmHg 52%
02:00 +23°C° 0 mm 0 m/S 719 mmHg 53%
03:00 +23°C° 0 mm 0 m/S 719 mmHg 55%
04:00 +23°C° 0 mm 0 m/S 719 mmHg 55%
05:00 +23°C° 0 mm 0 m/S 719 mmHg 55%
06:00 +25°C° 0 mm 1 m/S 719 mmHg 56%
07:00 +27°C° 0 mm 1 m/S 719 mmHg 49%
08:00 +29°C° 0 mm 1 m/S 720 mmHg 42%
09:00 +31°C° 0 mm 1 m/S 720 mmHg 35%
10:00 +34°C° 0 mm 2 m/S 720 mmHg 31%
11:00 +36°C° 0 mm 3 m/S 720 mmHg 27%
12:00 +38°C° 0 mm 4 m/S 720 mmHg 23%
13:00 +38°C° 0 mm 4 m/S 720 mmHg 24%
14:00 +39°C° 0 mm 5 m/S 719 mmHg 25%
15:00 +39°C° 0 mm 6 m/S 719 mmHg 25%
16:00 +37°C° 0 mm 5 m/S 719 mmHg 27%
17:00 +36°C° 0 mm 5 m/S 718 mmHg 29%
18:00 +34°C° 0 mm 4 m/S 718 mmHg 31%
19:00 +31°C° 0 mm 3 m/S 719 mmHg 36%
20:00 +29°C° 0 mm 2 m/S 719 mmHg 40%
21:00 +27°C° 0 mm 1 m/S 719 mmHg 45%
22:00 +27°C° 0 mm 1 m/S 719 mmHg 46%
23:00 +24°C° 0 mm 0 m/S 719 mmHg 47%

18 Juli, Samstag

Zeit Temperatur Niederschläge Wind Luftdruck Luftfeuchtigkeit
00:00 +23°C° 0 mm 0 m/S 719 mmHg 48%
01:00 +23°C° 0 mm 0 m/S 719 mmHg 50%
02:00 +23°C° 0 mm 0 m/S 719 mmHg 52%
03:00 +22°C° 0 mm 0 m/S 718 mmHg 54%
04:00 +23°C° 0 mm 0 m/S 718 mmHg 54%
05:00 +23°C° 0 mm 0 m/S 719 mmHg 54%
06:00 +24°C° 0 mm 0 m/S 719 mmHg 54%
07:00 +28°C° 0 mm 1 m/S 719 mmHg 48%
08:00 +30°C° 0 mm 1 m/S 720 mmHg 42%
09:00 +32°C° 0 mm 1 m/S 720 mmHg 35%
10:00 +34°C° 0 mm 2 m/S 720 mmHg 31%
11:00 +36°C° 0 mm 3 m/S 720 mmHg 28%
12:00 +38°C° 0 mm 4 m/S 720 mmHg 24%
13:00 +38°C° 0 mm 4 m/S 720 mmHg 25%
14:00 +39°C° 0 mm 5 m/S 720 mmHg 26%
15:00 +39°C° 0 mm 6 m/S 719 mmHg 27%
16:00 +38°C° 0 mm 6 m/S 719 mmHg 29%
17:00 +35°C° 0 mm 5 m/S 719 mmHg 31%
18:00 +34°C° 0 mm 4 m/S 719 mmHg 32%
19:00 +31°C° 0 mm 3 m/S 719 mmHg 36%
20:00 +29°C° 0 mm 2 m/S 719 mmHg 40%
21:00 +27°C° 0 mm 1 m/S 720 mmHg 43%
22:00 +27°C° 0 mm 1 m/S 720 mmHg 45%
23:00 +26°C° 0 mm 1 m/S 720 mmHg 46%

19 Juli, Sonntag

Zeit Temperatur Niederschläge Wind Luftdruck Luftfeuchtigkeit
00:00 +23°C° 0 mm 0 m/S 719 mmHg 47%
01:00 +23°C° 0 mm 0 m/S 719 mmHg 50%
02:00 +22°C° 0 mm 0 m/S 719 mmHg 53%
03:00 +23°C° 0 mm 1 m/S 719 mmHg 56%
04:00 +22°C° 0 mm 0 m/S 719 mmHg 56%
05:00 +23°C° 0 mm 0 m/S 719 mmHg 55%
06:00 +23°C° 0 mm 0 m/S 720 mmHg 54%
07:00 +27°C° 0 mm 1 m/S 720 mmHg 47%
08:00 +30°C° 0 mm 1 m/S 721 mmHg 39%
09:00 +32°C° 0 mm 1 m/S 721 mmHg 32%
10:00 +35°C° 0 mm 2 m/S 721 mmHg 28%
11:00 +37°C° 0 mm 3 m/S 721 mmHg 24%
12:00 +38°C° 0 mm 3 m/S 721 mmHg 20%
13:00 +40°C° 0 mm 4 m/S 721 mmHg 20%
14:00 +40°C° 0 mm 5 m/S 721 mmHg 19%
15:00 +41°C° 0 mm 5 m/S 720 mmHg 19%
16:00 +39°C° 0 mm 5 m/S 720 mmHg 21%
17:00 +37°C° 0 mm 5 m/S 720 mmHg 23%
18:00 +35°C° 0 mm 5 m/S 720 mmHg 25%
19:00 +33°C° 0 mm 4 m/S 720 mmHg 31%
20:00 +29°C° 0 mm 2 m/S 720 mmHg 38%
21:00 +27°C° 0 mm 1 m/S 720 mmHg 45%
22:00 +26°C° 0 mm 2 m/S 720 mmHg 49%
23:00 +26°C° 0 mm 2 m/S 720 mmHg 53%
Mehr zeigen